Vertical_Velocity
-0 1 0 -1 2 1 4 16 -2 -1 1 3 1 -0 -8 6 -1 -2 1 -2 -3 0 0 -1 -1 1 -1 -1 0 -0 1 -2 -1 -1 -1 -2 0 0 -1 -1 -1 -1 -3 -2 -1 -1 -1 -3 -0
-0 -0 -1 2 0 2 10 -0 1 -5 3 -0 -2 1 -2 1 -1 -4 -1 -1 -2 -1 4 1 -0 -1 1 1 0 1 -0 -1 -2 -1 -2 -2 -1 -1 -1 -2 -2 -1 0 -2 -2 -2 -2 -1 -1
2 2 0 1 0 -0 20 -12 -3 4 0 -2 -2 -2 -3 -3 -3 2 1 1 1 -0 -0 -0 0 1 1 1 0 -2 -1 -0 -1 -1 -0 -1 -1 -2 -2 -2 -2 -2 -1 -2 -1 -1 -2 -2 0
-1 1 -0 -0 1 10 5 -8 -3 -0 1 -2 -2 1 -1 -1 1 -1 0 1 -1 0 -2 -1 0 4 -4 9 -2 -1 -1 -0 -0 -1 -1 -2 -0 -0 -0 -0 0 1 -1 -1 1 1 -0 0 -2
-1 1 2 -3 1 7 5 4 -1 0 -0 -1 1 0 -0 1 0 1 1 2 -1 -1 -2 1 -2 2 -0 0 0 -0 0 -1 0 1 -0 -1 -0 -1 -0 -1 0 -1 -0 -0 -1 -0 -0 -0 -2
1 1 2 2 4 -4 4 0 1 -0 1 -0 -1 1 -2 -0 1 1 2 1 0 -1 -3 -5 -5 -3 -2 -1 -1 -0 1 -1 -1 -0 -0 0 0 0 -0 -2 -1 -0 -1 -1 -0 -1 0 -0 -0
-0 -1 5 2 2 -1 -4 3 -0 0 1 -1 -2 -5 -1 -2 -0 -1 -2 -1 -2 -2 0 -3 -1 -0 -2 -2 -2 -2 -2 -1 -1 -1 -1 -1 -2 -1 -1 -0 -0 -1 -1 0 1 1 1 0 1
1 -2 2 2 4 3 -8 1 2 2 -8 3 0 -1 -1 0 -2 -2 -1 -1 1 0 -0 -4 -3 -1 -1 -2 -1 0 -2 -4 -3 -1 -1 -1 -1 -0 -2 1 -2 -1 -0 -2 -3 -3 -3 -3 0
2 -0 2 3 0 8 -3 1 2 2 -2 -1 3 -3 0 0 3 1 -0 -1 -1 -2 -1 1 1 -0 -1 -0 -0 -0 -1 -0 0 -1 -2 -2 -1 -1 2 -4 -2 -3 -3 -2 -4 -2 -2 -4 -0
2 1 5 -6 1 4 -3 1 2 2 -1 -2 -2 -1 -1 -2 -0 -0 1 1 -0 -1 0 -1 -0 0 -2 -2 -2 -1 -2 -2 -1 -0 -2 -1 -1 -3 -1 1 1 -0 -4 -0 -3 -2 -4 -2 -3
-0 3 -2 3 0 5 -2 0 2 1 3 -2 -5 -0 1 1 0 -2 -1 -2 -1 -1 -2 -1 0 -0 -0 -0 -1 -0 1 0 -1 -0 0 -1 -0 -1 -2 -3 -2 -3 -2 -4 -2 -1 -3 -4 -5
-2 0 0 -1 0 4 3 -1 -1 2 -11 2 -2 2 0 -0 -0 -1 0 -0 -1 -0 1 -1 -1 -0 -0 0 0 0 0 -0 -1 -3 -1 -1 -2 -1 -2 -1 0 1 1 0 -1 -3 -2 -1 -2
-1 -0 1 2 -0 2 -1 4 0 -0 -6 -2 -1 1 -3 -1 2 -0 -0 -1 -1 -0 -0 -0 -1 -0 -1 -0 -1 -1 -1 -1 2 2 -0 -0 -1 -1 -1 -0 -0 1 -1 -0 -0 0 0 -1 -1
3 3 -1 2 0 -1 -3 -2 -1 3 -0 -4 1 0 1 -3 -1 0 0 0 -0 -2 0 1 -0 -1 -1 -1 -1 -1 -0 -2 -2 -4 -1 -3 -3 -2 -2 -3 -3 -3 -3 -4 -3 -2 -2 -3 -1
-2 -0 -1 -1 1 4 -3 -4 5 -7 2 -1 -1 0 1 1 0 -1 -2 -0 1 1 0 1 -0 1 -0 0 -0 0 -0 -1 -0 0 -1 1 0 -0 -2 -1 -3 -3 -3 -4 -3 -5 -4 -4 -3
-1 -3 -0 5 -4 6 7 8 -2 -3 2 0 3 -1 -1 -3 -2 -1 -0 -2 -3 -1 -1 -2 -3 -2 -1 -1 -0 -0 1 1 0 0 1 -1 -3 -3 -2 -2 -2 -3 -3 -3 -4 -3 -3 -2 -3
-2 2 -3 1 3 -6 -3 16 6 7 -2 0 1 0 -2 -2 -1 -3 -2 -1 -1 1 -3 -2 -1 -1 -2 -2 -2 -0 -0 -1 -2 -2 -1 -0 -1 -2 -4 -3 -4 -3 -2 -3 -3 -2 -2 -0 1
-0 -1 -3 -2 1 4 2 8 -8 3 2 1 1 -1 3 1 -3 1 -3 -1 -3 -0 -1 -2 -1 -1 -0 -0 0 -0 -2 -2 -1 -1 -1 -3 -4 -3 -3 -3 -3 -2 -1 -2 -5 -6 -7 -2 1
-4 -3 3 7 0 2 -3 -3 2 -7 1 3 4 2 3 -2 -2 3 -4 -0 -3 -0 -3 0 1 1 1 -0 -0 -1 -1 -2 -2 1 -3 -1 -3 -2 -2 -2 -3 -3 -4 -4 -5 -3 -6 -8 -7
-0 -2 7 3 7 -19 7 2 3 4 -12 10 -1 -5 -1 -2 0 6 0 -3 -9 -3 -0 -0 0 0 -2 -2 -2 -1 0 -1 -1 -3 -3 -4 -0 -3 -2 -4 -4 -3 -4 -2 -2 -1 -4 -4 -5
2 -7 2 -3 -1 -12 -1 -5 -6 10 6 -17 13 1 1 -2 -5 3 -0 2 -3 0 0 -1 -1 -1 -2 -1 -1 0 -3 -3 -2 -2 -4 -3 -1 -1 -1 -1 -4 -3 -1 -3 -1 -6 -3 -5 -7
-10 5 0 2 0 -11 7 -63 -9 1 -1 -3 4 7 1 4 -1 8 5 1 -5 -5 -3 -2 -0 0 -1 -0 1 -2 -4 1 -4 -2 -1 1 -1 -1 -4 -0 -2 -6 -2 -9 -1 -5 -3 -3 -4
3 -5 -2 -4 3 -11 38 -41 67 0 2 -6 12 2 4 -0 3 3 6 3 -2 -1 -5 -2 -3 -0 -1 4 2 1 -3 -2 -1 -2 -3 -2 -1 -3 -3 -2 -1 -0 -6 -5 -4 -3 -3 -2 -4
15 -9 2 3 7 -39 66 12 -50 15 -4 -15 4 10 10 1 -0 -1 3 -3 -5 5 -1 2 0 -0 0 -0 3 -1 -1 -2 2 -2 -2 -1 -1 -4 0 3 -4 -1 -1 -3 -4 -1 -2 -3 -2
7 1 -7 -16 0 -54 42 -10 12 17 -8 16 -15 -4 8 -1 -5 -5 1 1 -3 3 -1 -0 -1 0 -1 -1 -1 -2 1 1 2 -3 -3 -5 -3 -7 -4 -0 -4 1 -2 -2 -5 -3 -2 -3 -1
5 -5 -7 8 -1 7 17 -42 13 -5 8 -1 12 1 -3 9 3 6 6 -1 -7 -2 1 2 -2 -3 -0 -1 -1 1 -1 2 -1 -3 -2 0 -4 -7 -6 -3 -1 -2 -2 -4 -3 -3 -2 -2 -2
24 -25 21 -1 -6 -1 8 -17 -42 14 -2 -2 8 8 4 2 -1 -2 -1 -3 -8 -1 4 2 2 -1 -2 -1 -2 -2 -2 3 -1 -2 -2 -0 -5 -3 -4 -4 -1 -2 -2 -2 -3 -2 -2 -1 -1
1 11 10 13 6 7 -24 -3 -21 23 -4 -18 14 7 3 1 -3 5 7 0 -5 4 -3 1 2 -1 -3 -2 -2 0 2 -2 2 -3 -2 -2 -1 -4 -4 -3 -1 -1 -1 -1 -2 -2 -1 -1 -1
8 -11 6 4 1 -7 -11 -52 39 3 -2 6 -12 5 -0 -4 -3 2 9 5 -1 -2 -0 -0 -3 2 -6 1 -1 -0 -2 -2 0 -2 -1 -4 -1 -3 -3 -1 -2 -1 -1 -1 -3 -1 -1 -0 -0
-13 -6 13 9 -6 -5 -7 -82 32 5 3 4 7 5 1 1 2 1 5 3 7 -1 -5 -1 3 -3 1 -2 -1 -1 -3 4 3 -2 -1 -3 -1 -2 -2 -1 -1 -1 -2 -2 -2 -1 -0 0 0
Height
5847 5846 5845 5845 5847 5845 5844 5848 5840 5837 5836 5836 5835 5834 5832 5833 5831 5834 5833 5832 5833 5833 5834 5834 5834 5834 5833 5833 5832 5830 5830 5830 5829 5829 5828 5827 5827 5827 5826 5827 5827 5826 5826 5826 5826 5825 5824 5823 5821
5843 5841 5841 5840 5842 5841 5848 5841 5835 5833 5831 5830 5829 5828 5827 5827 5827 5828 5830 5829 5829 5830 5831 5831 5831 5830 5829 5828 5827 5826 5826 5825 5825 5824 5824 5824 5824 5823 5823 5823 5823 5823 5823 5822 5822 5822 5822 5820 5819
5837 5836 5836 5836 5836 5837 5844 5832 5830 5829 5827 5825 5824 5823 5824 5823 5824 5825 5825 5826 5826 5827 5827 5827 5827 5826 5825 5824 5823 5822 5821 5821 5821 5820 5820 5820 5820 5820 5819 5819 5818 5818 5818 5818 5818 5818 5817 5816 5816
5832 5832 5831 5830 5832 5836 5831 5826 5825 5824 5823 5821 5819 5819 5820 5820 5820 5822 5822 5823 5824 5824 5824 5824 5823 5822 5821 5820 5820 5819 5818 5818 5818 5817 5817 5817 5817 5816 5816 5815 5814 5814 5813 5814 5813 5813 5813 5812 5811
5826 5826 5826 5826 5826 5829 5825 5822 5820 5819 5818 5816 5816 5816 5817 5817 5818 5819 5820 5821 5821 5821 5820 5819 5818 5818 5817 5817 5816 5815 5815 5815 5815 5815 5814 5814 5813 5812 5812 5811 5810 5809 5809 5809 5808 5808 5807 5807 5807
5821 5821 5823 5823 5827 5822 5819 5816 5815 5813 5812 5812 5812 5812 5814 5815 5816 5816 5817 5816 5816 5815 5815 5815 5814 5813 5813 5813 5812 5812 5811 5810 5810 5810 5809 5809 5808 5808 5807 5806 5805 5805 5805 5804 5803 5803 5803 5802 5801
5817 5816 5819 5819 5823 5817 5814 5811 5810 5809 5808 5808 5808 5808 5810 5811 5811 5811 5811 5811 5810 5810 5810 5810 5811 5810 5809 5809 5809 5808 5807 5806 5805 5804 5804 5802 5802 5802 5801 5801 5800 5799 5798 5797 5797 5796 5796 5796 5795
5813 5813 5814 5815 5815 5813 5808 5807 5806 5806 5803 5804 5803 5804 5805 5807 5807 5807 5806 5806 5806 5806 5806 5805 5806 5805 5805 5804 5804 5803 5803 5802 5801 5800 5799 5798 5797 5796 5796 5794 5794 5793 5792 5791 5790 5790 5789 5788 5788
5808 5809 5810 5812 5811 5809 5803 5802 5802 5801 5801 5799 5799 5800 5801 5800 5801 5802 5802 5802 5802 5802 5801 5801 5801 5801 5800 5800 5799 5798 5798 5797 5796 5795 5794 5793 5792 5791 5789 5788 5787 5785 5784 5784 5782 5782 5781 5780 5779
5803 5804 5805 5802 5803 5803 5798 5798 5798 5798 5798 5796 5795 5795 5796 5796 5796 5796 5797 5797 5798 5798 5797 5797 5796 5796 5795 5795 5793 5793 5792 5791 5790 5788 5787 5785 5784 5783 5781 5780 5778 5777 5775 5775 5773 5772 5771 5770 5768
5798 5798 5797 5796 5796 5796 5794 5794 5794 5794 5795 5792 5791 5790 5791 5791 5792 5792 5793 5793 5793 5793 5793 5792 5791 5790 5789 5788 5787 5786 5784 5783 5782 5781 5779 5777 5776 5773 5771 5768 5767 5765 5764 5762 5762 5761 5759 5758 5756
5791 5791 5790 5789 5789 5789 5791 5791 5791 5789 5788 5787 5787 5788 5787 5786 5786 5787 5787 5787 5787 5786 5786 5784 5784 5783 5782 5781 5780 5778 5777 5776 5775 5773 5771 5769 5766 5764 5761 5759 5757 5755 5753 5751 5750 5748 5746 5745 5743
5786 5784 5784 5784 5784 5785 5786 5787 5788 5785 5782 5782 5782 5783 5782 5781 5781 5780 5780 5780 5780 5779 5778 5777 5776 5775 5775 5774 5773 5771 5769 5768 5766 5764 5762 5760 5757 5755 5752 5749 5747 5744 5742 5739 5737 5734 5732 5731 5729
5781 5780 5778 5778 5780 5781 5781 5781 5783 5784 5780 5778 5778 5778 5778 5777 5776 5776 5775 5774 5774 5773 5772 5771 5770 5768 5767 5765 5764 5763 5762 5760 5758 5756 5753 5750 5747 5744 5741 5738 5735 5732 5729 5726 5723 5720 5718 5716 5715
5777 5776 5775 5774 5773 5775 5775 5775 5779 5775 5777 5775 5774 5774 5773 5773 5773 5772 5772 5771 5769 5768 5766 5765 5763 5761 5760 5758 5756 5753 5751 5748 5745 5743 5740 5738 5735 5732 5729 5726 5724 5720 5717 5714 5711 5708 5705 5703 5701
5773 5771 5770 5771 5769 5768 5767 5771 5770 5769 5770 5769 5768 5768 5768 5768 5767 5766 5766 5764 5763 5762 5760 5758 5756 5754 5752 5749 5746 5743 5740 5738 5735 5733 5731 5727 5723 5721 5718 5716 5713 5708 5704 5700 5696 5693 5691 5688 5687
5766 5766 5765 5765 5764 5762 5762 5765 5763 5764 5763 5762 5762 5763 5763 5762 5760 5759 5758 5756 5755 5753 5752 5750 5748 5745 5743 5740 5737 5734 5732 5729 5726 5722 5718 5715 5712 5709 5706 5702 5697 5693 5689 5686 5683 5680 5678 5675 5672
5760 5759 5759 5760 5762 5757 5755 5757 5754 5756 5755 5755 5755 5756 5756 5754 5753 5751 5750 5749 5746 5745 5743 5741 5739 5736 5733 5730 5728 5725 5722 5719 5716 5712 5708 5704 5700 5697 5693 5689 5685 5682 5678 5674 5670 5666 5662 5661 5658
5753 5753 5752 5754 5756 5747 5750 5748 5750 5744 5747 5747 5747 5747 5747 5746 5743 5743 5742 5741 5738 5737 5734 5732 5729 5726 5723 5720 5717 5715 5712 5708 5704 5700 5696 5692 5689 5685 5681 5676 5672 5669 5665 5660 5655 5651 5648 5645 5643
5746 5745 5744 5744 5745 5739 5740 5740 5740 5740 5736 5739 5737 5735 5735 5734 5734 5734 5732 5730 5729 5726 5725 5723 5720 5717 5714 5710 5707 5704 5701 5697 5693 5689 5685 5682 5678 5673 5668 5664 5660 5656 5651 5646 5640 5636 5632 5629 5626
5738 5737 5737 5735 5734 5733 5731 5731 5731 5731 5732 5725 5726 5726 5725 5726 5725 5724 5722 5720 5719 5717 5714 5712 5709 5706 5703 5699 5697 5694 5690 5686 5682 5679 5675 5670 5665 5661 5657 5653 5648 5643 5638 5634 5628 5623 5617 5612 5607
5729 5727 5725 5724 5723 5725 5725 5717 5723 5721 5721 5718 5716 5718 5715 5715 5714 5714 5712 5710 5707 5706 5704 5702 5699 5695 5692 5689 5685 5681 5679 5675 5671 5667 5663 5659 5654 5650 5645 5640 5635 5630 5625 5620 5614 5608 5602 5597 5592
5718 5715 5714 5712 5712 5713 5714 5709 5714 5712 5713 5709 5705 5706 5705 5703 5704 5703 5700 5698 5695 5693 5691 5688 5686 5683 5681 5677 5673 5670 5666 5663 5659 5655 5651 5647 5643 5639 5634 5629 5623 5618 5613 5607 5601 5596 5592 5587 5582
5705 5700 5702 5700 5699 5698 5705 5701 5701 5704 5700 5694 5693 5695 5695 5693 5691 5689 5688 5685 5683 5682 5679 5676 5673 5671 5668 5665 5662 5659 5655 5651 5648 5644 5641 5637 5633 5629 5623 5617 5613 5608 5602 5597 5591 5586 5582 5577 5573
5693 5690 5689 5687 5685 5687 5694 5689 5692 5690 5686 5684 5679 5677 5680 5679 5677 5677 5676 5673 5670 5669 5666 5664 5662 5659 5656 5654 5652 5648 5644 5641 5637 5635 5632 5627 5623 5619 5613 5609 5603 5597 5591 5586 5581 5577 5572 5567 5563
5681 5678 5678 5674 5677 5679 5680 5673 5679 5676 5673 5671 5672 5673 5670 5666 5664 5662 5660 5658 5658 5657 5654 5651 5649 5647 5646 5644 5641 5638 5635 5631 5627 5625 5622 5618 5614 5609 5605 5599 5592 5587 5582 5578 5574 5568 5563 5558 5554
5672 5663 5668 5662 5662 5660 5666 5665 5668 5663 5658 5660 5659 5654 5653 5653 5652 5648 5647 5644 5643 5643 5642 5639 5637 5636 5635 5634 5631 5628 5625 5622 5618 5615 5612 5608 5603 5600 5595 5589 5583 5578 5575 5571 5566 5561 5556 5552 5548
5653 5656 5653 5649 5646 5643 5649 5653 5656 5654 5651 5645 5642 5640 5641 5640 5638 5635 5633 5631 5630 5630 5630 5629 5627 5625 5625 5623 5620 5618 5615 5612 5608 5606 5603 5598 5595 5591 5585 5581 5576 5571 5568 5563 5559 5554 5551 5547 5542
5638 5638 5638 5636 5635 5630 5633 5640 5652 5639 5634 5633 5630 5630 5630 5628 5627 5625 5624 5620 5619 5619 5619 5619 5618 5617 5613 5613 5611 5608 5605 5602 5599 5596 5593 5590 5586 5581 5578 5574 5570 5565 5560 5556 5552 5548 5545 5541 5538
5619 5624 5623 5618 5620 5618 5617 5620 5636 5623 5620 5622 5622 5622 5619 5617 5616 5614 5614 5612 5611 5608 5610 5608 5608 5607 5604 5603 5601 5597 5595 5590 5589 5586 5584 5582 5578 5574 5570 5567 5562 5557 5553 5549 5546 5542 5539 5537 5534